| time (UTC) | temp C | wind direction | speed KPH | gust KPH | rain 1hr cm | rain 24hr cm | rain mn cm | humidity % | barometer mb |
| 20260508031903 | 8 | 214 | 0.0 | 4.8 | 0.00 | 0.15 | 0.00 | 92 | 1010.7 |
| 20260508031403 | 8 | 214 | 1.6 | 8.0 | 0.00 | 0.15 | 0.00 | 91 | 1010.8 |
| 20260508030903 | 7 | 214 | 0.0 | 11.3 | 0.00 | 0.15 | 0.00 | 91 | 1010.8 |
| 20260508030403 | 7 | 214 | 1.6 | 9.7 | 0.00 | 0.15 | 0.00 | 91 | 1010.8 |
| 20260508025903 | 7 | 214 | 1.6 | 4.8 | 0.00 | 0.15 | 0.00 | 91 | 1010.8 |
| 20260508025405 | 8 | 214 | 0.0 | 4.8 | 0.00 | 0.15 | 0.00 | 91 | 1010.8 |
| 20260508024903 | 8 | 214 | 0.0 | 4.8 | 0.00 | 0.15 | 0.00 | 91 | 1010.8 |
| 20260508024403 | 8 | 214 | 1.6 | 4.8 | 0.00 | 0.15 | 0.00 | 90 | 1010.7 |
| 20260508023903 | 8 | 214 | 0.0 | 3.2 | 0.00 | 0.15 | 0.00 | 91 | 1010.7 |
| 20260508023403 | 8 | 214 | 0.0 | 0.0 | 0.00 | 0.15 | 0.00 | 90 | 1010.6 |
| 20260508022903 | 8 | 214 | 0.0 | 3.2 | 0.00 | 0.15 | 0.00 | 90 | 1010.5 |
| 20260508021905 | 8 | 214 | 0.0 | 4.8 | 0.00 | 0.15 | 0.00 | 90 | 1010.5 |
| 20260508021404 | 8 | 214 | 1.6 | 12.9 | 0.00 | 0.15 | 0.00 | 90 | 1010.6 |
| 20260508020904 | 8 | 215 | 1.6 | 4.8 | 0.00 | 0.15 | 0.00 | 90 | 1010.6 |
| 20260508020403 | 8 | 215 | 1.6 | 14.5 | 0.00 | 0.15 | 0.00 | 90 | 1010.5 |
| 20260508015904 | 8 | 215 | 8.0 | 19.3 | 0.00 | 0.15 | 0.00 | 90 | 1010.5 |
| 20260508015403 | 8 | 215 | 6.4 | 12.9 | 0.00 | 0.15 | 0.00 | 90 | 1010.4 |
| 20260508014903 | 8 | 226 | 6.4 | 19.3 | 0.00 | 0.15 | 0.00 | 90 | 1010.4 |
| 20260508014404 | 8 | 219 | 4.8 | 12.9 | 0.00 | 0.15 | 0.00 | 90 | 1010.5 |
| 20260508013903 | 8 | 219 | 8.0 | 20.9 | 0.00 | 0.15 | 0.00 | 91 | 1010.4 |
| 20260508013403 | 8 | 220 | 4.8 | 16.1 | 0.00 | 0.15 | 0.00 | 91 | 1010.3 |
| 20260508012903 | 8 | 213 | 4.8 | 9.7 | 0.00 | 0.15 | 0.00 | 91 | 1010.3 |
| 20260508012403 | 8 | 213 | 1.6 | 11.3 | 0.00 | 0.15 | 0.00 | 91 | 1010.4 |
| 20260508010904 | 8 | 217 | 9.7 | 19.3 | 0.00 | 0.15 | 0.00 | 91 | 1010.2 |
| 20260508010404 | 8 | 211 | 8.0 | 12.9 | 0.00 | 0.15 | 0.00 | 92 | 1010.2 |
| 20260508005403 | 8 | 211 | 9.7 | 19.3 | 0.00 | 0.15 | 0.00 | 92 | 1010.3 |
| 20260508004903 | 8 | 209 | 8.0 | 19.3 | 0.00 | 0.15 | 0.00 | 92 | 1010.3 |
| 20260508004403 | 8 | 211 | 8.0 | 11.3 | 0.00 | 0.15 | 0.00 | 92 | 1010.3 |
| 20260508003905 | 8 | 211 | 4.8 | 12.9 | 0.00 | 0.15 | 0.00 | 93 | 1010.3 |
| 20260508002903 | 8 | 210 | 3.2 | 11.3 | 0.00 | 0.15 | 0.00 | 93 | 1010.3 |
| 20260508002404 | 8 | 210 | 4.8 | 11.3 | 0.00 | 0.15 | 0.00 | 93 | 1010.2 |
| 20260508001903 | 8 | 210 | 1.6 | 12.9 | 0.00 | 0.15 | 0.00 | 93 | 1010.3 |
| 20260508001403 | 8 | 209 | 6.4 | 16.1 | 0.00 | 0.15 | 0.00 | 93 | 1010.3 |
| 20260508000903 | 8 | 213 | 4.8 | 11.3 | 0.00 | 0.15 | 0.00 | 93 | 1010.2 |
| 20260508000405 | 8 | 213 | 9.7 | 19.3 | 0.00 | 0.15 | 0.00 | 93 | 1010.2 |
| 20260507235903 | 8 | 212 | 3.2 | 11.3 | 0.00 | 0.15 | 0.00 | 93 | 1010.1 |
| 20260507235404 | 8 | 212 | 1.6 | 8.0 | 0.03 | 0.15 | 0.00 | 93 | 1010.1 |
| 20260507234903 | 8 | 212 | 1.6 | 11.3 | 0.03 | 0.15 | 0.00 | 93 | 1010.1 |
| 20260507234404 | 8 | 212 | 1.6 | 12.9 | 0.03 | 0.15 | 0.00 | 93 | 1010.1 |
| 20260507232904 | 8 | 209 | 1.6 | 9.7 | 0.03 | 0.15 | 0.00 | 93 | 1010.0 |
| 20260507231404 | 8 | 209 | 3.2 | 11.3 | 0.03 | 0.15 | 0.00 | 93 | 1010.0 |
| 20260507230905 | 8 | 209 | 1.6 | 4.8 | 0.03 | 0.15 | 0.00 | 93 | 1010.0 |
| 20260507230404 | 8 | 209 | 0.0 | 3.2 | 0.05 | 0.15 | 0.00 | 93 | 1010.0 |
| 20260507225904 | 8 | 209 | 0.0 | 3.2 | 0.05 | 0.15 | 0.15 | 93 | 1010.0 |
| 20260507225405 | 8 | 209 | 0.0 | 1.6 | 0.08 | 0.15 | 0.15 | 93 | 1010.0 |
| 20260507224904 | 8 | 209 | 0.0 | 3.2 | 0.08 | 0.15 | 0.15 | 93 | 1009.9 |
| 20260507224404 | 8 | 209 | 0.0 | 4.8 | 0.08 | 0.15 | 0.15 | 93 | 1009.9 |
| 20260507223903 | 8 | 209 | 0.0 | 4.8 | 0.08 | 0.15 | 0.15 | 93 | 1010.0 |
| 20260507222903 | 8 | 209 | 0.0 | 4.8 | 0.10 | 0.15 | 0.15 | 92 | 1009.9 |
| 20260507222403 | 8 | 209 | 0.0 | 3.2 | 0.10 | 0.15 | 0.15 | 92 | 1009.9 |
| 20260507221904 | 8 | 209 | 1.6 | 4.8 | 0.10 | 0.15 | 0.15 | 92 | 1009.9 |
| 20260507221406 | 8 | 209 | 0.0 | 9.7 | 0.10 | 0.15 | 0.15 | 92 | 1009.9 |
| 20260507220904 | 8 | 209 | 6.4 | 11.3 | 0.10 | 0.15 | 0.15 | 92 | 1010.1 |
| 20260507215904 | 8 | 209 | 0.0 | 11.3 | 0.05 | 0.10 | 0.10 | 92 | 1009.9 |
| 20260507215404 | 8 | 209 | 3.2 | 8.0 | 0.05 | 0.08 | 0.08 | 92 | 1009.9 |
| 20260507214904 | 8 | 209 | 0.0 | 9.7 | 0.05 | 0.05 | 0.05 | 91 | 1009.8 |
| 20260507214404 | 8 | 209 | 1.6 | 9.7 | 0.05 | 0.05 | 0.05 | 91 | 1009.7 |
| 20260507213905 | 8 | 209 | 1.6 | 12.9 | 0.05 | 0.05 | 0.05 | 91 | 1009.8 |
| 20260507212905 | 8 | 209 | 0.0 | 4.8 | 0.03 | 0.05 | 0.05 | 91 | 1009.8 |
| 20260507212404 | 8 | 209 | 3.2 | 11.3 | 0.03 | 0.05 | 0.05 | 90 | 1009.8 |
| 20260507211904 | 8 | 209 | 1.6 | 8.0 | 0.03 | 0.05 | 0.05 | 90 | 1009.7 |
| 20260507211404 | 9 | 209 | 0.0 | 4.8 | 0.03 | 0.05 | 0.05 | 90 | 1009.7 |
| 20260507210904 | 9 | 209 | 0.0 | 3.2 | 0.03 | 0.05 | 0.05 | 90 | 1009.7 |
| 20260507210405 | 9 | 209 | 0.0 | 1.6 | 0.03 | 0.05 | 0.05 | 89 | 1009.7 |
| 20260507205905 | 9 | 209 | 1.6 | 9.7 | 0.03 | 0.05 | 0.05 | 89 | 1009.7 |
| 20260507205403 | 9 | 210 | 1.6 | 9.7 | 0.00 | 0.03 | 0.03 | 88 | 1009.7 |
| 20260507204905 | 9 | 210 | 6.4 | 11.3 | 0.00 | 0.03 | 0.03 | 87 | 1009.6 |
| 20260507203905 | 9 | 209 | 4.8 | 14.5 | 0.00 | 0.03 | 0.03 | 87 | 1009.4 |
| 20260507203404 | 9 | 214 | 8.0 | 19.3 | 0.00 | 0.03 | 0.03 | 87 | 1009.4 |
| 20260507202905 | 9 | 215 | 4.8 | 12.9 | 0.00 | 0.03 | 0.03 | 88 | 1009.4 |
| 20260507202404 | 9 | 217 | 6.4 | 12.9 | 0.00 | 0.03 | 0.03 | 88 | 1009.3 |
| 20260507201903 | 9 | 217 | 1.6 | 9.7 | 0.00 | 0.03 | 0.03 | 88 | 1009.3 |
| 20260507201404 | 9 | 217 | 3.2 | 9.7 | 0.00 | 0.03 | 0.03 | 88 | 1009.2 |
| 20260507200905 | 9 | 217 | 4.8 | 12.9 | 0.00 | 0.03 | 0.03 | 88 | 1009.3 |
| 20260507200405 | 9 | 218 | 4.8 | 19.3 | 0.00 | 0.03 | 0.03 | 88 | 1009.2 |
| 20260507195903 | 9 | 216 | 8.0 | 14.5 | 0.00 | 0.03 | 0.03 | 88 | 1009.2 |
| 20260507195403 | 9 | 214 | 8.0 | 19.3 | 0.00 | 0.03 | 0.03 | 87 | 1009.3 |
| 20260507194904 | 9 | 215 | 4.8 | 14.5 | 0.00 | 0.03 | 0.03 | 87 | 1009.3 |
| 20260507194405 | 9 | 207 | 4.8 | 22.5 | 0.00 | 0.03 | 0.03 | 87 | 1009.4 |
| 20260507192904 | 10 | 211 | 0.0 | 0.0 | 0.00 | 0.03 | 0.03 | 87 | 1009.1 |
| 20260507191904 | 10 | 211 | 0.0 | 8.0 | 0.00 | 0.03 | 0.03 | 86 | 1009.0 |
| 20260507191405 | 10 | 211 | 1.6 | 9.7 | 0.00 | 0.03 | 0.03 | 86 | 1009.1 |
| 20260507190403 | 10 | 211 | 3.2 | 8.0 | 0.03 | 0.03 | 0.03 | 86 | 1009.2 |
| 20260507185904 | 10 | 211 | 3.2 | 9.7 | 0.03 | 0.03 | 0.03 | 86 | 1009.1 |
| 20260507184405 | 10 | 215 | 4.8 | 16.1 | 0.03 | 0.03 | 0.03 | 86 | 1009.0 |
| 20260507183903 | 10 | 213 | 8.0 | 14.5 | 0.03 | 0.03 | 0.03 | 86 | 1009.0 |
| 20260507182903 | 10 | 213 | 8.0 | 14.5 | 0.03 | 0.03 | 0.03 | 86 | 1009.1 |
| 20260507182404 | 10 | 212 | 4.8 | 19.3 | 0.03 | 0.03 | 0.03 | 86 | 1009.1 |
| 20260507181903 | 10 | 208 | 9.7 | 16.1 | 0.03 | 0.03 | 0.03 | 86 | 1009.1 |
| 20260507181404 | 10 | 217 | 8.0 | 16.1 | 0.03 | 0.03 | 0.03 | 85 | 1009.1 |
| 20260507180903 | 10 | 211 | 1.6 | 16.1 | 0.00 | 0.00 | 0.00 | 84 | 1009.0 |
| 20260507175403 | 11 | 209 | 1.6 | 9.7 | 0.00 | 0.00 | 0.00 | 81 | 1008.8 |
| 20260507174904 | 11 | 209 | 0.0 | 4.8 | 0.00 | 0.00 | 0.00 | 78 | 1008.8 |
| 20260507174405 | 11 | 209 | 3.2 | 11.3 | 0.00 | 0.00 | 0.00 | 76 | 1008.8 |
| 20260507173904 | 11 | 209 | 8.0 | 11.3 | 0.00 | 0.00 | 0.00 | 75 | 1008.6 |
| 20260507173403 | 11 | 208 | 6.4 | 11.3 | 0.00 | 0.00 | 0.00 | 75 | 1008.7 |
| 20260507172903 | 11 | 208 | 8.0 | 11.3 | 0.00 | 0.00 | 0.00 | 74 | 1008.7 |
| 20260507172404 | 12 | 208 | 4.8 | 11.3 | 0.00 | 0.00 | 0.00 | 73 | 1008.7 |
| 20260507171904 | 12 | 208 | 6.4 | 11.3 | 0.00 | 0.00 | 0.00 | 72 | 1008.8 |
| 20260507171403 | 12 | 209 | 3.2 | 11.3 | 0.00 | 0.00 | 0.00 | 72 | 1008.7 |
| 20260507170904 | 12 | 209 | 3.2 | 11.3 | 0.00 | 0.00 | 0.00 | 71 | 1008.8 |
| 20260507170403 | 12 | 208 | 8.0 | 19.3 | 0.00 | 0.00 | 0.00 | 71 | 1008.7 |
| 20260507165903 | 12 | 211 | 8.0 | 19.3 | 0.00 | 0.00 | 0.00 | 74 | 1008.8 |
| 20260507165403 | 12 | 208 | 4.8 | 14.5 | 0.00 | 0.00 | 0.00 | 71 | 1008.8 |
| 20260507164903 | 12 | 221 | 6.4 | 16.1 | 0.00 | 0.00 | 0.00 | 71 | 1008.7 |
| 20260507164403 | 12 | 215 | 6.4 | 16.1 | 0.00 | 0.00 | 0.00 | 71 | 1008.7 |
| 20260507163905 | 12 | 245 | 6.4 | 16.1 | 0.00 | 0.00 | 0.00 | 71 | 1008.7 |
| 20260507163404 | 12 | 211 | 6.4 | 11.3 | 0.00 | 0.00 | 0.00 | 70 | 1008.7 |
| 20260507162904 | 12 | 213 | 6.4 | 19.3 | 0.00 | 0.00 | 0.00 | 69 | 1008.7 |
| 20260507161404 | 13 | 201 | 6.4 | 11.3 | 0.00 | 0.00 | 0.00 | 68 | 1008.7 |
| 20260507160904 | 13 | 207 | 4.8 | 12.9 | 0.00 | 0.00 | 0.00 | 67 | 1008.7 |
| 20260507160404 | 13 | 208 | 3.2 | 11.3 | 0.00 | 0.00 | 0.00 | 68 | 1008.6 |
| 20260507155904 | 13 | 207 | 8.0 | 11.3 | 0.00 | 0.00 | 0.00 | 68 | 1008.6 |
| 20260507155405 | 12 | 208 | 6.4 | 12.9 | 0.00 | 0.00 | 0.00 | 70 | 1008.6 |
| 20260507154903 | 12 | 207 | 6.4 | 12.9 | 0.00 | 0.00 | 0.00 | 69 | 1008.7 |
| 20260507154404 | 12 | 206 | 6.4 | 19.3 | 0.00 | 0.00 | 0.00 | 69 | 1008.6 |
| 20260507153904 | 12 | 210 | 4.8 | 12.9 | 0.00 | 0.00 | 0.00 | 70 | 1008.7 |
| 20260507153404 | 12 | 211 | 3.2 | 11.3 | 0.00 | 0.00 | 0.00 | 71 | 1008.7 |
| 20260507152904 | 12 | 211 | 6.4 | 12.9 | 0.00 | 0.00 | 0.00 | 69 | 1008.8 |
| 20260507152406 | 12 | 211 | 4.8 | 11.3 | 0.00 | 0.00 | 0.00 | 69 | 1008.8 |
| 20260507151904 | 12 | 211 | 3.2 | 11.3 | 0.00 | 0.00 | 0.00 | 71 | 1008.8 |
| 20260507150905 | 12 | 211 | 6.4 | 11.3 | 0.00 | 0.00 | 0.00 | 72 | 1009.0 |
| 20260507150404 | 12 | 210 | 6.4 | 11.3 | 0.00 | 0.00 | 0.00 | 72 | 1008.9 |
| 20260507145904 | 12 | 211 | 4.8 | 12.9 | 0.00 | 0.00 | 0.00 | 70 | 1008.9 |
| 20260507145404 | 12 | 211 | 8.0 | 12.9 | 0.00 | 0.00 | 0.00 | 70 | 1009.0 |
| 20260507144905 | 12 | 205 | 8.0 | 12.9 | 0.00 | 0.00 | 0.00 | 70 | 1009.0 |
| 20260507144405 | 12 | 205 | 6.4 | 12.9 | 0.00 | 0.00 | 0.00 | 69 | 1009.1 |
| 20260507143404 | 12 | 198 | 6.4 | 11.3 | 0.00 | 0.00 | 0.00 | 69 | 1009.1 |
| 20260507142904 | 12 | 198 | 6.4 | 14.5 | 0.00 | 0.00 | 0.00 | 69 | 1009.2 |
| 20260507141904 | 12 | 202 | 9.7 | 12.9 | 0.00 | 0.00 | 0.00 | 69 | 1009.3 |
| 20260507141404 | 12 | 202 | 6.4 | 12.9 | 0.00 | 0.00 | 0.00 | 70 | 1009.2 |
| 20260507140904 | 12 | 205 | 8.0 | 12.9 | 0.00 | 0.00 | 0.00 | 69 | 1009.4 |
| 20260507135904 | 12 | 209 | 8.0 | 12.9 | 0.00 | 0.00 | 0.00 | 67 | 1009.4 |
| 20260507135404 | 12 | 205 | 9.7 | 14.5 | 0.00 | 0.00 | 0.00 | 67 | 1009.4 |
| 20260507134905 | 12 | 209 | 8.0 | 11.3 | 0.00 | 0.00 | 0.00 | 68 | 1009.4 |
| 20260507134404 | 12 | 210 | 8.0 | 16.1 | 0.00 | 0.00 | 0.00 | 67 | 1009.4 |
| 20260507133905 | 12 | 204 | 8.0 | 12.9 | 0.00 | 0.00 | 0.00 | 67 | 1009.4 |
| 20260507133404 | 12 | 211 | 8.0 | 19.3 | 0.00 | 0.00 | 0.00 | 66 | 1009.4 |
| 20260507132906 | 12 | 208 | 8.0 | 12.9 | 0.00 | 0.00 | 0.00 | 67 | 1009.5 |
| 20260507132404 | 12 | 205 | 8.0 | 16.1 | 0.00 | 0.00 | 0.00 | 66 | 1009.5 |
| 20260507131906 | 12 | 208 | 8.0 | 14.5 | 0.00 | 0.00 | 0.00 | 65 | 1009.6 |
| 20260507131405 | 12 | 205 | 9.7 | 19.3 | 0.00 | 0.00 | 0.00 | 64 | 1009.5 |
| 20260507130904 | 12 | 213 | 9.7 | 19.3 | 0.00 | 0.00 | 0.00 | 63 | 1009.4 |
| 20260507130405 | 13 | 207 | 8.0 | 16.1 | 0.00 | 0.00 | 0.00 | 63 | 1009.5 |
| 20260507125904 | 13 | 214 | 9.7 | 16.1 | 0.00 | 0.00 | 0.00 | 63 | 1009.5 |
| 20260507125404 | 13 | 206 | 9.7 | 16.1 | 0.00 | 0.00 | 0.00 | 63 | 1009.5 |
| 20260507124904 | 13 | 210 | 9.7 | 19.3 | 0.00 | 0.00 | 0.00 | 64 | 1009.5 |
| 20260507124405 | 13 | 215 | 12.9 | 24.1 | 0.00 | 0.00 | 0.00 | 63 | 1009.5 |
| 20260507123903 | 13 | 213 | 11.3 | 24.1 | 0.00 | 0.00 | 0.00 | 62 | 1009.5 |
| 20260507123404 | 13 | 212 | 11.3 | 19.3 | 0.00 | 0.00 | 0.00 | 64 | 1009.5 |
| 20260507122904 | 13 | 214 | 9.7 | 24.1 | 0.00 | 0.00 | 0.00 | 64 | 1009.5 |
| 20260507122405 | 13 | 214 | 9.7 | 24.1 | 0.00 | 0.00 | 0.00 | 64 | 1009.5 |
| 20260507121904 | 13 | 211 | 9.7 | 19.3 | 0.00 | 0.00 | 0.00 | 64 | 1009.6 |
| 20260507121403 | 13 | 208 | 11.3 | 22.5 | 0.00 | 0.00 | 0.00 | 64 | 1009.6 |
| 20260507120904 | 13 | 215 | 9.7 | 20.9 | 0.00 | 0.00 | 0.00 | 65 | 1009.6 |
| 20260507120403 | 13 | 210 | 8.0 | 16.1 | 0.00 | 0.00 | 0.00 | 66 | 1009.6 |
| 20260507115904 | 12 | 209 | 9.7 | 19.3 | 0.00 | 0.00 | 0.00 | 68 | 1009.6 |
| 20260507114904 | 11 | 214 | 8.0 | 16.1 | 0.00 | 0.00 | 0.00 | 72 | 1009.6 |
| 20260507114403 | 11 | 211 | 9.7 | 19.3 | 0.00 | 0.00 | 0.00 | 72 | 1009.6 |
| 20260507113905 | 11 | 214 | 9.7 | 16.1 | 0.00 | 0.00 | 0.00 | 73 | 1009.6 |
| 20260507113403 | 11 | 209 | 8.0 | 14.5 | 0.00 | 0.00 | 0.00 | 75 | 1009.6 |
| 20260507112905 | 11 | 208 | 8.0 | 12.9 | 0.00 | 0.00 | 0.00 | 76 | 1009.6 |
| 20260507112404 | 11 | 207 | 4.8 | 14.5 | 0.00 | 0.00 | 0.00 | 77 | 1009.5 |
| 20260507111905 | 11 | 211 | 4.8 | 11.3 | 0.00 | 0.00 | 0.00 | 80 | 1009.4 |
| 20260507111403 | 11 | 210 | 3.2 | 12.9 | 0.00 | 0.00 | 0.00 | 81 | 1009.5 |
| 20260507110903 | 11 | 211 | 6.4 | 11.3 | 0.00 | 0.00 | 0.00 | 79 | 1009.4 |
| 20260507105904 | 11 | 211 | 1.6 | 4.8 | 0.00 | 0.00 | 0.00 | 80 | 1009.3 |
| 20260507105404 | 11 | 211 | 1.6 | 4.8 | 0.00 | 0.00 | 0.00 | 79 | 1009.4 |
| 20260507104903 | 11 | 211 | 1.6 | 9.7 | 0.00 | 0.00 | 0.00 | 79 | 1009.5 |
| 20260507104403 | 11 | 211 | 4.8 | 8.0 | 0.00 | 0.00 | 0.00 | 77 | 1009.7 |
| 20260507103903 | 11 | 211 | 1.6 | 9.7 | 0.00 | 0.00 | 0.00 | 77 | 1009.4 |
| 20260507102904 | 11 | 207 | 3.2 | 9.7 | 0.00 | 0.00 | 0.00 | 77 | 1009.6 |
| 20260507102403 | 11 | 207 | 3.2 | 9.7 | 0.00 | 0.00 | 0.00 | 77 | 1009.7 |
| 20260507101403 | 11 | 209 | 4.8 | 19.3 | 0.00 | 0.00 | 0.00 | 75 | 1009.6 |
| 20260507100904 | 11 | 204 | 3.2 | 16.1 | 0.00 | 0.00 | 0.00 | 76 | 1009.5 |
| 20260507100404 | 11 | 206 | 3.2 | 11.3 | 0.00 | 0.00 | 0.00 | 76 | 1009.4 |
| 20260507095904 | 11 | 206 | 4.8 | 16.1 | 0.00 | 0.00 | 0.00 | 77 | 1009.4 |
| 20260507095404 | 11 | 198 | 3.2 | 12.9 | 0.00 | 0.00 | 0.00 | 77 | 1009.4 |
| 20260507094904 | 11 | 202 | 6.4 | 20.9 | 0.00 | 0.00 | 0.00 | 78 | 1009.5 |
| 20260507094404 | 10 | 211 | 1.6 | 16.1 | 0.00 | 0.00 | 0.00 | 78 | 1009.5 |
| 20260507093903 | 10 | 211 | 3.2 | 11.3 | 0.00 | 0.00 | 0.00 | 77 | 1009.5 |
| 20260507093404 | 10 | 210 | 8.0 | 19.3 | 0.00 | 0.00 | 0.00 | 76 | 1009.6 |
| 20260507092903 | 10 | 200 | 6.4 | 20.9 | 0.00 | 0.00 | 0.00 | 76 | 1009.6 |
| 20260507092405 | 10 | 207 | 6.4 | 19.3 | 0.00 | 0.00 | 0.00 | 77 | 1009.7 |
| 20260507091904 | 10 | 221 | 6.4 | 16.1 | 0.00 | 0.00 | 0.00 | 77 | 1009.6 |
| 20260507091403 | 10 | 211 | 1.6 | 11.3 | 0.00 | 0.00 | 0.00 | 77 | 1009.6 |
| 20260507085904 | 11 | 213 | 8.0 | 16.1 | 0.00 | 0.00 | 0.00 | 73 | 1009.6 |
| 20260507085403 | 11 | 213 | 12.9 | 24.1 | 0.00 | 0.00 | 0.00 | 72 | 1009.6 |
| 20260507084403 | 11 | 211 | 4.8 | 19.3 | 0.00 | 0.00 | 0.00 | 74 | 1009.8 |
| 20260507083904 | 11 | 211 | 4.8 | 12.9 | 0.00 | 0.00 | 0.00 | 75 | 1009.7 |
| 20260507083403 | 11 | 209 | 8.0 | 12.9 | 0.00 | 0.00 | 0.00 | 74 | 1009.7 |
| 20260507082903 | 10 | 206 | 4.8 | 12.9 | 0.00 | 0.00 | 0.00 | 74 | 1009.8 |
| 20260507082405 | 10 | 211 | 11.3 | 19.3 | 0.00 | 0.00 | 0.00 | 74 | 1009.9 |
| 20260507081905 | 10 | 205 | 3.2 | 19.3 | 0.00 | 0.00 | 0.00 | 74 | 1009.8 |
| 20260507081404 | 10 | 208 | 6.4 | 11.3 | 0.00 | 0.00 | 0.00 | 75 | 1009.8 |
| 20260507080904 | 10 | 208 | 8.0 | 14.5 | 0.00 | 0.00 | 0.00 | 74 | 1009.8 |
| 20260507080404 | 10 | 209 | 3.2 | 12.9 | 0.00 | 0.00 | 0.00 | 75 | 1009.8 |
| 20260507075403 | 10 | 207 | 4.8 | 19.3 | 0.00 | 0.00 | 0.00 | 75 | 1009.8 |
| 20260507074903 | 10 | 213 | 4.8 | 19.3 | 0.00 | 0.00 | 0.00 | 74 | 1009.9 |
| 20260507074405 | 10 | 215 | 3.2 | 11.3 | 0.00 | 0.00 | 0.00 | 75 | 1009.8 |
| 20260507073903 | 10 | 215 | 8.0 | 25.7 | 0.00 | 0.00 | 0.00 | 74 | 1009.8 |
| 20260507073405 | 10 | 212 | 8.0 | 19.3 | 0.00 | 0.00 | 0.00 | 75 | 1009.8 |
| 20260507072904 | 10 | 215 | 11.3 | 20.9 | 0.00 | 0.00 | 0.00 | 75 | 1009.8 |
| 20260507072403 | 10 | 204 | 9.7 | 19.3 | 0.00 | 0.00 | 0.00 | 75 | 1009.8 |
| 20260507071904 | 10 | 217 | 11.3 | 20.9 | 0.00 | 0.00 | 0.00 | 75 | 1009.8 |
| 20260507071405 | 10 | 210 | 8.0 | 25.7 | 0.00 | 0.00 | 0.00 | 75 | 1009.8 |
| 20260507070904 | 10 | 209 | 8.0 | 19.3 | 0.00 | 0.00 | 0.00 | 75 | 1009.8 |
| 20260507070405 | 10 | 215 | 1.6 | 19.3 | 0.00 | 0.00 | 0.00 | 74 | 1009.8 |
| 20260507065904 | 10 | 210 | 9.7 | 22.5 | 0.00 | 0.00 | 0.00 | 74 | 1009.8 |
| 20260507065404 | 10 | 210 | 9.7 | 20.9 | 0.00 | 0.00 | 0.00 | 74 | 1009.8 |
| 20260507064904 | 10 | 220 | 9.7 | 19.3 | 0.00 | 0.00 | 0.00 | 74 | 1009.8 |
| 20260507064404 | 10 | 213 | 9.7 | 16.1 | 0.00 | 0.00 | 0.00 | 74 | 1009.8 |
| 20260507063403 | 10 | 207 | 3.2 | 11.3 | 0.00 | 0.00 | 0.00 | 73 | 1009.8 |
| 20260507062403 | 10 | 213 | 3.2 | 25.7 | 0.00 | 0.00 | 0.00 | 72 | 1009.9 |
| 20260507061904 | 10 | 206 | 8.0 | 25.7 | 0.00 | 0.00 | 0.00 | 72 | 1009.8 |
| 20260507061404 | 10 | 207 | 4.8 | 20.9 | 0.00 | 0.00 | 0.00 | 72 | 1009.8 |
| 20260507060903 | 10 | 205 | 8.0 | 19.3 | 0.00 | 0.00 | 0.00 | 71 | 1009.9 |
| 20260507060404 | 10 | 214 | 9.7 | 19.3 | 0.00 | 0.00 | 0.00 | 71 | 1009.9 |
| 20260507055903 | 10 | 207 | 8.0 | 19.3 | 0.00 | 0.00 | 0.00 | 71 | 1009.9 |
| 20260507055404 | 10 | 214 | 11.3 | 20.9 | 0.00 | 0.00 | 0.00 | 70 | 1009.9 |
| 20260507054904 | 10 | 215 | 9.7 | 22.5 | 0.00 | 0.00 | 0.00 | 70 | 1009.9 |
| 20260507054403 | 10 | 206 | 4.8 | 16.1 | 0.00 | 0.00 | 0.00 | 70 | 1009.9 |
| 20260507053904 | 10 | 149 | 8.0 | 20.9 | 0.00 | 0.00 | 0.00 | 70 | 1009.9 |
| 20260507053404 | 10 | 205 | 3.2 | 12.9 | 0.00 | 0.00 | 0.00 | 70 | 1009.9 |
| 20260507052904 | 10 | 205 | 1.6 | 11.3 | 0.00 | 0.00 | 0.00 | 69 | 1009.8 |
| 20260507052404 | 10 | 205 | 3.2 | 16.1 | 0.00 | 0.00 | 0.00 | 69 | 1009.8 |
| 20260507051903 | 10 | 201 | 4.8 | 9.7 | 0.00 | 0.00 | 0.00 | 69 | 1009.8 |
| 20260507051404 | 10 | 201 | 6.4 | 12.9 | 0.00 | 0.00 | 0.00 | 69 | 1009.8 |
| 20260507050904 | 10 | 200 | 4.8 | 9.7 | 0.00 | 0.00 | 0.00 | 69 | 1009.9 |
| 20260507045904 | 10 | 200 | 3.2 | 11.3 | 0.00 | 0.00 | 0.00 | 69 | 1009.9 |
| 20260507045405 | 10 | 200 | 4.8 | 12.9 | 0.00 | 0.00 | 0.00 | 69 | 1009.9 |
| 20260507044904 | 10 | 188 | 4.8 | 11.3 | 0.00 | 0.00 | 0.00 | 69 | 1009.8 |
| 20260507043905 | 10 | 207 | 4.8 | 11.3 | 0.00 | 0.00 | 0.00 | 69 | 1009.9 |
| 20260507043404 | 10 | 207 | 8.0 | 16.1 | 0.00 | 0.00 | 0.00 | 69 | 1009.9 |
| 20260507042403 | 10 | 215 | 8.0 | 19.3 | 0.00 | 0.00 | 0.00 | 69 | 1009.9 |
| 20260507041405 | 10 | 222 | 8.0 | 14.5 | 0.00 | 0.00 | 0.00 | 69 | 1010.0 |
| 20260507040905 | 10 | 208 | 8.0 | 14.5 | 0.00 | 0.00 | 0.00 | 69 | 1010.0 |
| 20260507035903 | 10 | 218 | 4.8 | 12.9 | 0.00 | 0.00 | 0.00 | 68 | 1009.9 |
| 20260507035404 | 10 | 222 | 4.8 | 16.1 | 0.00 | 0.00 | 0.00 | 68 | 1010.0 |
| 20260507034904 | 10 | 198 | 3.2 | 9.7 | 0.00 | 0.00 | 0.00 | 68 | 1009.9 |
| 20260507034405 | 10 | 198 | 4.8 | 16.1 | 0.00 | 0.00 | 0.00 | 67 | 1010.0 |
| 20260507033904 | 9 | 200 | 4.8 | 16.1 | 0.00 | 0.00 | 0.00 | 69 | 1010.1 |
| 20260507033404 | 9 | 208 | 8.0 | 19.3 | 0.00 | 0.00 | 0.00 | 68 | 1010.1 |
| 20260507032905 | 9 | 217 | 8.0 | 14.5 | 0.00 | 0.00 | 0.00 | 69 | 1010.1 |
| 20260507032405 | 9 | 213 | 4.8 | 14.5 | 0.00 | 0.00 | 0.00 | 68 | 1010.2 |